Location: Sungai Ketit
(2.6833°N, 113.2333°E)
Time: 19:49:01
(UTC+00:00)

Timation 2 Rocket - Pass Details

Date: 23 May 2024
Orbit: 906 x 1074 km, 70.0° (Epoch: 19 June)

Event Time Altitude Azimuth Distance (km) Brightness Sun altitude
Rises 11:06:57 0° 340° (NNW) 3,541 7.6 -9.1°
Reaches altitude 10° 11:09:28 10° 339° (NNW) 2,589 6.9 -9.7°
Maximum altitude 11:15:24 75° 254° (WSW) 936 4.1 -11.0°
Drops below altitude 10° 11:21:21 10° 169° (S) 2,593 5.9 -12.4°
Sets 11:23:52 0° 167° (SSE) 3,546 6.6 -13.0°
